Earth resources
NORAD ID: 25395
Int'l Code: 1998-043B
Perigee: 815.3 km
Apogee: 818.2 km
Inclination: 98.4 °
Period: 101.1 minutes
Semi major axis: 7187 km
Launch date: July 10, 1998
Source: Chile (CHLE)
Two Line Element Set (TLE):
1 25395U 98043B 13169.08818391 .00000035 00000-0 32774-4 0 6493
2 25395 098.3648 144.1588 0002047 213.7035 278.9521 14.24661528776563
Source:
NASA's NSSDC Master Catalog entry for FASAT B